Location: Brompton
(51.4000°N, 0.5333°E)
Time: 11:02:22
(UTC+00:00)

Cosmos 1898 Rocket - Pass Details

Date: 04 October 2021
Orbit: 752 x 784 km, 74.0° (Epoch: 17 October)

Event Time Altitude Azimuth Distance (km) Brightness Sun altitude
Rises 02:45:46 0° 339° (NNW) 3,272 6.9 -30.1°
Reaches altitude 10° 02:48:47 10° 356° (N) 2,345 6.3 -29.7°
Maximum altitude 02:52:43 20° 44° (NE) 1,736 6.0 -29.2°
Drops below altitude 10° 02:56:38 10° 91° (E) 2,345 6.7 -28.7°
Sets 02:59:38 0° 108° (ESE) 3,271 7.3 -28.3°
